STARLINK-35246, 65660

Orbit data source: Space-Track

STARLINK-35246, 65660 is a payload satellite owned by SpaceX/Seattle (US) in SSO that was launched on Fri, 19 Sep 2025 UTC via an FALCON 9 launch vehicle from the Air Force Western Test Range (AFWTR). Payload-class satellites include a variety of spacecraft equipped with specific instruments for various scientific and technological missions. These include communications satellites like Starlink; space stations such as the ISS; scientific satellites like the Hubble; Earth observation satellites from companies like Planet Labs, Umbra, and HawkEye 360; GPS; miniature CubeSats for education and research; and military/defense satellites.

Loading next visibility...
Identifier
65660, 2025-211J
Orbit
SSO
Country
Flag of USUS
Related business
Manufacturer
SpaceX/Seattle
Mission
Operational Commercial Communications
Bus & Motor
STARLINK V2MO, Unknown motor
Mass
575 kg wet, ~530 kg dry
Launch date (UTC)
2025-09-19 (9 months ago)
Launch vehicle
FALCON 9
Launch site
Air Force Western Test Range (AFWTR)
Object type
Payload
Rocket body
Debris
Shape & HBR
Box + 2 Pan, 17.7 m
Radar Cross Section
36.964 m², Large (>1 m²)

Expand to show TLE details & history
Last TLE update: 1 day ago

TLE from 1 day ago
0 STARLINK-35246
1 65660U 25211J   26170.71645914  .00003616  00000-0  25434-3 0  9994
2 65660  97.3369 213.5608 0001828  77.2004 282.9428 15.05664601 42393
Epoch: 2026-06-19T17:11Z
TLE epoch observation values (Epoch: 2026-06-19T17:11:42.069Z)
Latitude
-0.00001°
Longitude
47.69407°
Altitude
552.256 km
Speed
7.586 km/s
True Right ascension
14h 14m 14s
True Declination
0° 00' 00"
Sunlit
Object was in full shadow at epoch
Visualization orbit readout
Latitude
Unknown
Longitude
Unknown
Altitude
Unknown
Speed
Unknown
Apparent Right ascension
Unknown
Apparent Declination
Unknown
Sunlit
N/A
Visualization observer readout
Local Sidereal Time
07:12:00
Azimuth
Unknown
Elevation
Unknown
Doppler factor
Unknown
Orbital elements
Apogee altitude
547.714 km
Perigee altitude
545.183 km
Semi-major axis
6,924.585 km
Eccentricity
0.00018
Inclination
97.3369°
RAAN
213.5608°
Arg. of periapsis
77.2004°
True anomaly
282.92238°
Mean anomaly
282.9428°
Eccentric anomaly
282.93259°
Mean motion
3.76663 °/min
Orbital period
95.58 mins
BSTAR
0.00025434
Loading maneuver chart data...
Computing Atmospheric mass density...
Loading historical data...
Loading historical data...
Loading historical data...
Loading historical data...
Loading historical data...
Loading historical data...
Loading historical data...

Documentation

Showing up to 5 results
|